{"data":{"norad_id":52133,"epoch":"2026-09-19T16:19:30.531936Z","epoch_age_seconds":126902,"freshness":"FRESH","line1":"1 52133U 22029AX  26262.68021449 -.00000085  00000+0  86173-5 0  9994","line2":"2 52133  53.1605 271.2512 0001234  71.7413 288.3724 15.34391517250313","mean_motion":15.34391517,"eccentricity":0.0001234,"inclination_deg":53.1605,"raan_deg":271.2512,"arg_perigee_deg":71.7413,"mean_anomaly_deg":288.3724,"bstar":8.6173e-6,"rev_number":25031,"period_min":93.848276925791,"perigee_km":461.88429079001,"apogee_km":463.57261638395,"semimajor_km":6840.865453587,"source":"CELESTRAK","updated_at":"2026-09-20T09:00:39.991795Z"}}